Regional Weather Roundup
Issued by NWS

Home | Current Version | Previous Version | Text Only | Print | Product List | Glossary On
Versions: 1 2 3 4 5 6 7 8 9 10 11 12 13 14 15 16 17 18 19 20 21 22 23 24 25 26 27 28 29 30 31 32 33 34 35 36 37 38 39 40 41 42 43 44 45 46 47 48 49 50
000
ASUS43 KLMK 161202
RWRKY
KENTUCKY REGIONAL WEATHER ROUNDUP
NATIONAL WEATHER SERVICE LOUISVILLE KY
800 AM EDT TUE SEP 16 2014

NOTE "FAIR" INDICATES FEW OR NO CLOUDS BELOW 12,000 FEET
WITH NO SIGNIFICANT WEATHER AND/OR OBSTRUCTIONS TO VISIBILITY.

KYZ001>023-026-027-061>063-070>075-161300-
WESTERN AND SOUTH CENTRAL KENTUCKY

CITY           SKY/WX    TMP DP  RH WIND       PRES   REMARKS
PADUCAH        CLOUDY    63  56  78 N10       30.17R
HENDERSON      CLOUDY    59  54  82 N8        30.17R
OWENSBORO      CLOUDY    61  58  90 N8        30.16R
HOPKINSVILLE   CLOUDY    64  64 100 N7        30.14R
BOWLING GREEN  CLOUDY    66  63  90 NW5       30.12R
GLASGOW        CLOUDY    65  65  99 CALM      30.12R
$$

KYZ024-025-028>034-038-045-046-053-161300-
NORTH CENTRAL KENTUCKY

CITY           SKY/WX    TMP DP  RH WIND       PRES   REMARKS
LOUISVILLE/SDF CLOUDY    62  59  90 N8        30.13R
LOUISVILLE/LOU CLOUDY    62  59  90 N5        30.14R
FORT KNOX      CLOUDY    61  59  93 N8        30.12R
$$

KYZ035>037-039>044-047>052-055>060-089>105-161300-
NORTHEAST KENTUCKY

CITY           SKY/WX    TMP DP  RH WIND       PRES   REMARKS
LEXINGTON      CLOUDY    62  59  90 NE12      30.12R FOG
COVINGTON      CLOUDY    58  55  90 N8        30.14R
FRANKFORT      CLOUDY    60  58  92 NE6       30.12R
$$

KYZ054-064>069-076>088-106>120-161300-
SOUTHEAST KENTUCKY

CITY           SKY/WX    TMP DP  RH WIND       PRES   REMARKS
JACKSON        FOG       62  61  96 CALM      30.12R VSB 1/2
LONDON         CLOUDY    66  61  84 CALM      30.12R
SOMERSET       NOT AVBL
MIDDLESBORO    CLOUDY    64  63  97 CALM      30.12S
MONTICELLO     CLOUDY    66  65  97 CALM      30.14R
$$




USA.gov is the U.S. government's official web portal to all federal, state and local government web resources and services.